Flag for India Weather past 2 weeks in Bhabua, Bihar, India

Now
82 °F

Partly cloudy.


Feels Like: 92 °F
Forecast: 81 / 95 °F
Wind: 6 mph from South

Location: Varanasi / Babatpur

Current Time: Jul 6, 2015 at 1:49:13 AM

Latest Report: Jul 6, 2015 at 12:00 AM


Visibility: 2 mi

Pressure: 29.50 "Hg

Humidity: 89%

Dew point: 79 °F

Location of BhabuaLocation

Historic Weather in Bhabua — Graph

°F

Bhabua temperature yesterday

Maximum temperature yesterday: 102 °F (at 3:00 PM)
Minimum temperature yesterday: 82 °F (at 10:00 PM)
Average temperature yesterday: 91 °F

Past Weeks' High & Low Weather Summary

 TemperatureHumidityPressure
High104 °F (Jun 21, 3:00 PM)100% (Jun 28, 1:00 PM)29.68 "Hg (Jun 28, 1:00 PM)
Low75 °F (Jun 29, 12:00 AM)33% (Jun 21, 3:00 PM)29.30 "Hg (Jun 22, 5:00 PM)
Average89 °F66%29.50 "Hg
* Reported Midnight between Jun 20 and Jun 21 — Midnight between Jul 5 and Jul 6, Bhabua, Weather by CustomWeather, © 2015

Note: Actual official high and low records may vary slightly from our data, if they occured in-between our weather recording intervals... More about our weather records

Advertising

Bhabua weather history for previous 24 hours

 ConditionsComfort  
Time TempWeatherWind HumidityBarometerVisibility
12:00 AM
Mon, Jul 6
82 °FPartly cloudy.6 mph89%29.50 "Hg2 mi
10:00 PM
Sun, Jul 5
82 °FPartly cloudy.No wind89%29.47 "Hg2 mi
8:00 PM84 °FPartly cloudy.3 mph79%29.47 "Hg2 mi
7:00 PM84 °FScattered clouds.8 mph74%29.42 "Hg2 mi
5:00 PM95 °FBroken clouds.9 mph56%29.42 "Hg3 mi
4:00 PM100 °FBroken clouds.6 mph45%29.42 "Hg3 mi
3:00 PM102 °FHaze.7 mph42%29.42 "Hg3 mi
2:00 PM100 °FHaze.7 mph45%29.45 "Hg3 mi
1:00 PM100 °FHaze.7 mph45%29.47 "Hg3 mi
12:00 PM99 °FHaze.8 mph47%29.47 "Hg3 mi
11:00 AM97 °FHaze.7 mph50%29.50 "Hg3 mi
10:00 AM93 °FHaze.8 mph56%29.50 "Hg2 mi
9:00 AM91 °FHaze.7 mph59%29.50 "Hg2 mi
8:00 AM86 °FHaze.6 mph70%29.50 "Hg2 mi
7:00 AM86 °FHaze.5 mph70%29.47 "Hg3 mi
6:00 AM84 °FScattered clouds.3 mph70%29.47 "Hg3 mi
5:00 AM84 °FPassing clouds.6 mph70%29.45 "Hg3 mi
4:00 AM84 °FPassing clouds.7 mph70%29.47 "Hg3 mi
Weather by CustomWeather, © 2015

See weather overviewHow to use our weather pages